Location: Binningen
(47.7924°N, 8.7261°E)
Time: 12:58:04
(UTC+00:00)

Cosmos 1733 Rocket - Pass Details

Date: 07 October 2021
Orbit: 604 x 627 km, 82.5° (Epoch: 22 October)

Event Time Altitude Azimuth Distance (km) Brightness Sun altitude
Rises 03:07:54 0° 349° (N) 2,906 6.6 -24.8°
Reaches altitude 10° 03:10:08 10° 349° (N) 1,998 5.7 -24.4°
Enters shadow 03:14:09 71° 326° (NW) 662 3.0 -23.8°
